This demonstration page uses our WeatherBlox Daily Observations layout. Learn more.

Left ArrowRight Arrow

38.20091, -84.87328

Hourly Observations for February 20, 2022

Temp ( °F °C ) Dew Point ( °F °C ) Humidity (%) Winds ( mph kmh ) Pressure ( in mb ) Visibility ( mi km ) Precip ( " mm )
12:53 am 00:53 Clear 21 -6.1 14 -10 74 74 Calm 30.40 1030 10 16 0.00 0.00
1:53 am 01:53 Clear 21 -6.1 14 -10 74 74 Calm 30.40 1029 10 16 0.00 0.00
2:53 am 02:53 Clear 20 -6.7 14 -10 78 78 Calm 30.37 1029 10 16 0.00 0.00
3:53 am 03:53 Clear 22 -5.6 13 -10.6 68 68 ESE 6 9 30.35 1028 10 16 0.00 0.00
4:53 am 04:53 Clear 24 -4.4 13 -10.6 62 62 SSE 6 9 30.35 1028 10 16 0.00 0.00
5:53 am 05:53 Clear 24 -4.4 13 -10.6 62 62 SE 5 7 30.35 1028 10 16 0.00 0.00
6:53 am 06:53 Clear 26 -3.3 12 -11.1 55 55 SSE 6 9 30.34 1027 10 16 0.00 0.00
7:53 am 07:53 Sunny 27 -2.8 14 -10 58 58 S 6 9 30.33 1027 10 16 0.00 0.00
8:53 am 08:53 Sunny 33 0.6 15 -9.4 47 47 S 7 11 30.34 1028 N/A 0.00 0.00
9:53 am 09:53 Sunny 38 3.3 16 -8.9 41 41 S 10 17 30.33 1027 10 16 0.00 0.00
10:53 am 10:53 Sunny 46 7.8 18 -7.8 32 32 SSW 13 20 30.29 1026 10 16 0.00 0.00
11:53 am 11:53 Sunny 50 10 22 -5.6 33 33 S 12 19 30.27 1025 10 16 0.00 0.00
12:53 pm 12:53 Sunny 55 12.8 25 -3.9 31 31 SW 13 20 30.23 1024 10 16 0.00 0.00
1:53 pm 13:53 Sunny 57 13.9 26 -3.3 30 30 SSW 14 22 30.19 1022 10 16 0.00 0.00
2:53 pm 14:53 Sunny 58 14.4 27 -2.8 31 31 SW 15 24 30.16 1022 10 16 0.00 0.00
3:53 pm 15:53 Sunny 59 15 28 -2.2 31 31 SSW 15 24 30.14 1021 10 16 0.00 0.00
5:53 pm 17:53 Sunny 57 13.9 27 -2.8 32 32 S 12 19 30.11 1020 10 16 0.00 0.00
6:53 pm 18:53 Clear 54 12.2 26 -3.3 34 34 SSW 9 15 30.12 1020 10 16 0.00 0.00
7:53 pm 19:53 Clear 53 11.7 26 -3.3 35 35 S 9 15 30.12 1020 10 16 0.00 0.00
8:53 pm 20:53 Clear 50 10 25 -3.9 38 38 S 8 13 30.13 1020 10 16 0.00 0.00
9:53 pm 21:53 Clear 47 8.3 24 -4.4 41 41 S 7 11 30.13 1020 10 16 0.00 0.00
10:53 pm 22:53 Clear 45 7.2 23 -5 42 42 S 7 11 30.14 1021 10 16 0.00 0.00
11:53 pm 23:53 Clear 45 7.2 22 -5.6 40 40 S 5 7 30.14 1021 10 16 0.00 0.00

Powered by AerisWeather